Home > Weather > Cape Canaveral > Past weeks

Flag for USA Past Weather in Cape Canaveral, Florida, USA — Yesterday and Last 2 Weeks

Now
79 °F

Clear.


Feels Like: 83 °F
Forecast: 77 / 84 °F
Wind: 7 mph from Southeast

Location: Cape Kennedy

Current Time: Aug 30, 2016 at 3:26:10 AM

Latest Report: Aug 30, 2016 at 2:58 AM


Visibility: 10 mi

Pressure: 29.93 "Hg

Humidity: 87%

Dew Point: 75 °F

Location of Cape CanaveralLocation

Past Weather in Cape Canaveral — Graph

°F

Cape Canaveral Temperature Yesterday

Maximum temperature yesterday: 88 °F (at 11:58 AM)
Minimum temperature yesterday: 75 °F (at 7:58 PM)
Average temperature yesterday: 81 °F

High & Low Weather Summary for the Past Weeks

 TemperatureHumidityPressure
High93 °F (Aug 20, 2:58 PM)100% (Aug 18, 4:03 AM)30.19 "Hg (Aug 18, 4:03 AM)
Low74 °F (Aug 19, 6:58 AM)52% (Aug 19, 3:58 PM)29.91 "Hg (Aug 29, 5:03 PM)
Average83 °F79%30.04 "Hg
* Reported Aug 15 1:58 AM — Aug 30 1:58 AM, Cape Canaveral, Weather by CustomWeather, © 2016

Note: Actual official high and low records may vary slightly from our data, if they occured in-between our weather recording intervals... More about our weather records

Advertising

Cape Canaveral Weather History for the Previous 24 Hours

Scroll right to see more
 ConditionsComfort  
Time TempWeatherWind HumidityBarometerVisibility
1:58 AM
Tue, Aug 30
79 °FClear.7 mph87%29.94 "Hg10 mi
12:58 AM79 °FClear.12 mph86%29.96 "Hg10 mi
11:58 PM
Mon, Aug 29
79 °FClear.10 mph89%29.96 "Hg10 mi
10:58 PM78 °FClear.13 mph91%29.97 "Hg10 mi
10:03 PM79 °FClear.16 mph89%29.93 "Hg8 mi
9:58 PM78 °FClear.7 mph92%29.94 "Hg10 mi
8:58 PM77 °FClear.6 mph93%29.94 "Hg10 mi
7:58 PM75 °FSunny.8 mph93%29.95 "Hg10 mi
6:58 PM77 °FThunderstorms. Fog.2 mph91%29.94 "Hg3 mi
5:58 PM80 °FSunny.6 mph89%29.93 "Hg10 mi
5:03 PM81 °FLight rain. Sunny.6 mph84%29.91 "Hg4 mi
4:58 PM80 °FRain. Sunny.8 mph85%29.92 "Hg3 mi
3:58 PM86 °FSunny.12 mph71%29.93 "Hg10 mi
2:58 PM87 °FSunny.15 mph69%29.94 "Hg10 mi
1:58 PM86 °FSunny.12 mph80%29.96 "Hg10 mi
12:58 PM81 °FSunny.7 mph84%29.97 "Hg10 mi
11:58 AM88 °FSunny.12 mph67%29.97 "Hg10 mi
10:58 AM87 °FSunny.14 mph69%29.98 "Hg10 mi
9:58 AM87 °FSunny.15 mph72%29.97 "Hg10 mi
8:58 AM85 °FSunny.7 mph77%29.95 "Hg10 mi
7:58 AM83 °FClear.6 mph83%29.95 "Hg10 mi
6:58 AM80 °FClear.5 mph87%29.94 "Hg10 mi
5:58 AM79 °FClear.5 mph89%29.93 "Hg8 mi
4:58 AM79 °FClear.5 mph90%29.93 "Hg10 mi
3:58 AM79 °FClear.2 mph86%29.93 "Hg10 mi
Weather by CustomWeather, © 2016

See weather overviewHow to use our weather pages